• In Belarus
  • List of Countries
  • For 7 days
  • Water Temperature
  • Satellite Maps
  • Weather Map
  • Weather Widgets
  • user-avatar
    Login

    Hourly Weather Inchhon

    Today, 15 October, Monday

    Time Temperature Precipitation Wind Pressure Humidity
    00:00 +14°C° 0 mm 2 mps 765 mmHg 70%
    01:00 +14°C° 0 mm 2 mps 765 mmHg 71%
    02:00 +13°C° 0 mm 2 mps 765 mmHg 71%
    03:00 +13°C° 0 mm 2 mps 765 mmHg 72%
    04:00 +13°C° 0 mm 2 mps 765 mmHg 73%
    05:00 +13°C° 0 mm 2 mps 765 mmHg 74%
    06:00 +14°C° 0 mm 2 mps 765 mmHg 71%
    07:00 +15°C° 0 mm 2 mps 764 mmHg 68%
    08:00 +16°C° 0 mm 1 mps 764 mmHg 62%
    09:00 +19°C° 0 mm 1 mps 764 mmHg 58%
    10:00 +19°C° 0 mm 2 mps 764 mmHg 54%
    11:00 +21°C° 0 mm 2 mps 763 mmHg 50%
    12:00 +21°C° 0 mm 3 mps 763 mmHg 46%
    13:00 +22°C° 0 mm 3 mps 762 mmHg 43%
    14:00 +23°C° 0 mm 2 mps 762 mmHg 41%
    15:00 +21°C° 0 mm 2 mps 762 mmHg 44%
    16:00 +20°C° 0 mm 3 mps 762 mmHg 46%
    17:00 +18°C° 0 mm 3 mps 762 mmHg 49%
    18:00 +18°C° 0 mm 3 mps 762 mmHg 50%
    19:00 +17°C° 0 mm 3 mps 763 mmHg 51%
    20:00 +16°C° 0 mm 3 mps 763 mmHg 52%
    21:00 +16°C° 0 mm 3 mps 763 mmHg 52%
    22:00 +14°C° 0 mm 3 mps 763 mmHg 53%
    23:00 +15°C° 0 mm 2 mps 763 mmHg 53%

    Tomorrow, 16 October, Tuesday

    Time Temperature Precipitation Wind Pressure Humidity
    00:00 +14°C° 0 mm 2 mps 763 mmHg 53%
    01:00 +13°C° 0 mm 3 mps 763 mmHg 53%
    02:00 +13°C° 0 mm 3 mps 762 mmHg 53%
    03:00 +13°C° 0 mm 3 mps 762 mmHg 53%
    04:00 +13°C° 0 mm 3 mps 762 mmHg 53%
    05:00 +12°C° 0 mm 3 mps 762 mmHg 53%
    06:00 +13°C° 0 mm 3 mps 762 mmHg 51%
    07:00 +14°C° 0 mm 3 mps 762 mmHg 48%
    08:00 +16°C° 0 mm 3 mps 762 mmHg 46%
    09:00 +17°C° 0 mm 3 mps 762 mmHg 41%
    10:00 +18°C° 0 mm 4 mps 762 mmHg 35%
    11:00 +20°C° 0 mm 4 mps 762 mmHg 30%
    12:00 +20°C° 0 mm 4 mps 761 mmHg 30%
    13:00 +20°C° 0 mm 5 mps 761 mmHg 30%
    14:00 +20°C° 0 mm 5 mps 760 mmHg 30%
    15:00 +19°C° 0 mm 5 mps 760 mmHg 33%
    16:00 +17°C° 0 mm 5 mps 760 mmHg 36%
    17:00 +15°C° 0 mm 5 mps 761 mmHg 40%
    18:00 +15°C° 0 mm 4 mps 761 mmHg 41%
    19:00 +14°C° 0 mm 4 mps 761 mmHg 42%
    20:00 +13°C° 0 mm 4 mps 761 mmHg 43%
    21:00 +13°C° 0 mm 4 mps 761 mmHg 44%
    22:00 +12°C° 0 mm 4 mps 761 mmHg 46%
    23:00 +12°C° 0 mm 3 mps 761 mmHg 47%

    Day after tomorrow, 17 October, Wednesday

    Time Temperature Precipitation Wind Pressure Humidity
    00:00 +11°C° 0 mm 3 mps 761 mmHg 49%
    01:00 +11°C° 0 mm 3 mps 761 mmHg 51%
    02:00 +11°C° 0 mm 3 mps 761 mmHg 52%
    03:00 +10°C° 0 mm 3 mps 761 mmHg 54%
    04:00 +10°C° 0 mm 3 mps 761 mmHg 56%
    05:00 +10°C° 0 mm 3 mps 761 mmHg 58%
    06:00 +11°C° 0 mm 3 mps 761 mmHg 56%
    07:00 +13°C° 0 mm 2 mps 761 mmHg 54%
    08:00 +14°C° 0 mm 2 mps 761 mmHg 52%
    09:00 +15°C° 0 mm 2 mps 761 mmHg 48%
    10:00 +16°C° 0 mm 2 mps 761 mmHg 45%
    11:00 +18°C° 0 mm 2 mps 761 mmHg 41%
    12:00 +18°C° 0 mm 3 mps 760 mmHg 40%
    13:00 +18°C° 0 mm 3 mps 760 mmHg 39%
    14:00 +18°C° 0 mm 3 mps 760 mmHg 38%
    15:00 +17°C° 0 mm 3 mps 760 mmHg 43%
    16:00 +15°C° 0 mm 4 mps 760 mmHg 48%
    17:00 +14°C° 0 mm 4 mps 760 mmHg 53%
    18:00 +14°C° 0 mm 4 mps 761 mmHg 56%
    19:00 +13°C° 0 mm 4 mps 761 mmHg 60%
    20:00 +12°C° 0 mm 4 mps 762 mmHg 63%
    21:00 +12°C° 0 mm 4 mps 762 mmHg 66%
    22:00 +12°C° 0 mm 3 mps 762 mmHg 68%
    23:00 +11°C° 0 mm 3 mps 762 mmHg 71%

    18 October, Thursday

    Time Temperature Precipitation Wind Pressure Humidity
    00:00 +11°C° 0 mm 3 mps 762 mmHg 72%
    01:00 +10°C° 0 mm 3 mps 762 mmHg 73%
    02:00 +10°C° 0 mm 3 mps 762 mmHg 75%
    03:00 +10°C° 0 mm 3 mps 762 mmHg 75%
    04:00 +10°C° 0 mm 3 mps 762 mmHg 75%
    05:00 +10°C° 0 mm 3 mps 762 mmHg 75%
    06:00 +11°C° 0 mm 3 mps 763 mmHg 71%
    07:00 +12°C° 0 mm 3 mps 763 mmHg 67%
    08:00 +13°C° 0 mm 3 mps 764 mmHg 63%
    09:00 +14°C° 0 mm 3 mps 764 mmHg 58%
    10:00 +15°C° 0 mm 4 mps 764 mmHg 54%
    11:00 +18°C° 0 mm 4 mps 763 mmHg 49%
    12:00 +18°C° 0.2 mm 4 mps 763 mmHg 50%
    13:00 +17°C° 0.2 mm 5 mps 763 mmHg 50%
    14:00 +17°C° 0.2 mm 5 mps 763 mmHg 50%
    15:00 +16°C° 0.2 mm 5 mps 763 mmHg 54%
    16:00 +15°C° 0.2 mm 5 mps 763 mmHg 58%
    17:00 +14°C° 0.2 mm 6 mps 764 mmHg 62%
    18:00 +14°C° 0 mm 5 mps 764 mmHg 64%
    19:00 +13°C° 0 mm 5 mps 765 mmHg 66%
    20:00 +12°C° 0 mm 5 mps 765 mmHg 68%
    21:00 +12°C° 0 mm 4 mps 765 mmHg 70%
    22:00 +12°C° 0 mm 4 mps 766 mmHg 72%
    23:00 +11°C° 0 mm 4 mps 766 mmHg 73%

    19 October, Friday

    Time Temperature Precipitation Wind Pressure Humidity
    00:00 +11°C° 0 mm 4 mps 766 mmHg 74%
    01:00 +11°C° 0 mm 4 mps 766 mmHg 74%
    02:00 +10°C° 0 mm 4 mps 766 mmHg 75%
    03:00 +10°C° 0 mm 3 mps 767 mmHg 75%
    04:00 +10°C° 0 mm 3 mps 767 mmHg 75%
    05:00 +10°C° 0 mm 3 mps 767 mmHg 75%
    06:00 +11°C° 0 mm 3 mps 768 mmHg 70%
    07:00 +12°C° 0 mm 3 mps 768 mmHg 66%
    08:00 +13°C° 0 mm 3 mps 768 mmHg 61%
    09:00 +15°C° 0 mm 2 mps 768 mmHg 55%
    10:00 +17°C° 0 mm 2 mps 768 mmHg 48%
    11:00 +18°C° 0 mm 2 mps 768 mmHg 41%
    12:00 +19°C° 0 mm 2 mps 767 mmHg 39%
    13:00 +19°C° 0 mm 3 mps 767 mmHg 37%
    14:00 +20°C° 0 mm 3 mps 766 mmHg 35%
    15:00 +19°C° 0 mm 3 mps 766 mmHg 39%
    16:00 +17°C° 0 mm 3 mps 767 mmHg 43%
    17:00 +16°C° 0 mm 3 mps 767 mmHg 46%
    18:00 +16°C° 0 mm 2 mps 767 mmHg 48%
    19:00 +15°C° 0 mm 2 mps 767 mmHg 51%
    20:00 +14°C° 0 mm 2 mps 768 mmHg 53%
    21:00 +14°C° 0 mm 2 mps 768 mmHg 54%
    22:00 +14°C° 0 mm 2 mps 768 mmHg 56%
    23:00 +13°C° 0 mm 2 mps 768 mmHg 57%

    20 October, Saturday

    Time Temperature Precipitation Wind Pressure Humidity
    00:00 +13°C° 0 mm 2 mps 768 mmHg 58%
    01:00 +12°C° 0 mm 2 mps 768 mmHg 59%
    02:00 +12°C° 0 mm 2 mps 768 mmHg 61%
    03:00 +10°C° 0 mm 2 mps 768 mmHg 62%
    04:00 +10°C° 0 mm 2 mps 768 mmHg 63%
    05:00 +10°C° 0 mm 2 mps 768 mmHg 64%
    06:00 +12°C° 0 mm 1 mps 768 mmHg 61%
    07:00 +13°C° 0 mm 1 mps 768 mmHg 57%
    08:00 +14°C° 0 mm 1 mps 769 mmHg 54%
    09:00 +15°C° 0 mm 1 mps 768 mmHg 48%
    10:00 +18°C° 0 mm 1 mps 768 mmHg 41%
    11:00 +19°C° 0 mm 1 mps 768 mmHg 35%
    12:00 +19°C° 0 mm 2 mps 767 mmHg 33%
    13:00 +19°C° 0 mm 2 mps 767 mmHg 31%
    14:00 +20°C° 0 mm 3 mps 766 mmHg 28%
    15:00 +19°C° 0 mm 2 mps 766 mmHg 31%
    16:00 +17°C° 0 mm 2 mps 767 mmHg 34%
    17:00 +16°C° 0 mm 2 mps 767 mmHg 37%
    18:00 +16°C° 0 mm 1 mps 767 mmHg 39%
    19:00 +15°C° 0 mm 1 mps 767 mmHg 41%
    20:00 +14°C° 0 mm 0 mps 767 mmHg 43%
    21:00 +13°C° 0 mm 0 mps 767 mmHg 44%
    22:00 +13°C° 0 mm 1 mps 767 mmHg 46%
    23:00 +13°C° 0 mm 1 mps 767 mmHg 48%
    Show more